Flag for U.S.A. Weather past 2 weeks in Dover, Delaware, U.S.A.

Now
70 °F

Clear.


Feels Like: 62 °F
Forecast: 70 / 86 °F
Wind: 8 mph from South

Location: Dover Air Force Base

Current Time: May 27, 2015 at 4:41:24 AM

Latest Report: May 27, 2015 at 3:58 AM


Visibility: 10 mi

Pressure: 30.15 "Hg

Humidity: 100%

Dew point: 70 °F

Location of DoverLocation

Historic Weather in Dover — Graph

°F

Dover temperature yesterday

Maximum temperature yesterday: 87 °F (at 2:58 PM)
Minimum temperature yesterday: 65 °F (at 12:58 AM)
Average temperature yesterday: 75 °F

Past Weeks' High & Low Weather Summary

 TemperatureHumidityPressure
High87 °F (May 12, 2:58 PM)100% (May 12, 2:58 AM)30.44 "Hg (May 12, 2:58 AM)
Low47 °F (May 14, 5:58 AM)29% (May 23, 2:58 PM)29.81 "Hg (May 12, 4:58 PM)
Average67 °F72%30.12 "Hg
* Reported May 12 2:58 AM — May 27 2:58 AM, Dover, Weather by CustomWeather, © 2015

Note: Actual official high and low records may vary slightly from our data, if they occured in-between our weather recording intervals... More about our weather records

Advertising

Dover weather history for previous 24 hours

 ConditionsComfort  
Time TempWeatherWind HumidityBarometerVisibility
2:58 AM
Wed, May 27
70 °FClear.8 mph100%30.16 "Hg10 mi
1:58 AM70 °FClear.9 mph100%30.16 "Hg10 mi
12:58 AM70 °FPassing clouds.10 mph96%30.16 "Hg10 mi
11:58 PM
Tue, May 26
70 °FClear.13 mph94%30.17 "Hg10 mi
10:58 PM71 °FClear.10 mph88%30.18 "Hg10 mi
9:58 PM73 °FClear.10 mph80%30.18 "Hg10 mi
8:58 PM75 °FSunny.12 mph76%30.16 "Hg10 mi
7:58 PM79 °FSunny.9 mph69%30.15 "Hg10 mi
6:58 PM82 °FSunny.12 mph64%30.15 "Hg10 mi
5:58 PM84 °FScattered clouds.13 mph61%30.15 "Hg10 mi
4:58 PM86 °FScattered clouds.13 mph58%30.16 "Hg10 mi
3:58 PM87 °FPassing clouds.15 mph56%30.17 "Hg9 mi
2:58 PM87 °FPassing clouds.14 mph53%30.18 "Hg10 mi
1:58 PM86 °FPassing clouds.20 mph54%30.19 "Hg10 mi
12:58 PM85 °FPassing clouds.17 mph58%30.21 "Hg10 mi
11:58 AM83 °FPassing clouds.14 mph60%30.22 "Hg8 mi
10:58 AM81 °FSunny.12 mph66%30.24 "Hg10 mi
9:58 AM77 °FSunny.12 mph72%30.23 "Hg10 mi
8:58 AM74 °FSunny.13 mph78%30.24 "Hg10 mi
7:58 AM70 °FSunny.15 mph86%30.23 "Hg10 mi
6:58 AM67 °FSunny.9 mph95%30.23 "Hg10 mi
5:58 AM65 °FClear.12 mph100%30.22 "Hg10 mi
4:58 AM65 °FClear.9 mph99%30.20 "Hg10 mi
Weather by CustomWeather, © 2015

See weather overviewHow to use our weather pages